[[{"header":{"parameterUnit":"m.s-1","parameterCategory":1,"la1":30.2991,"la2":30.254,"lo1":-89.0895,"lo2":-89.0444,"dy":0.0017,"dx":0.0017,"nx":28,"ny":28,"refTime":"2024-10-10T21:00:00:Z","depth":0,"parameterNumber":2,"parameterNumberName":"U-component_of_WINDS"},"data":[0,0,0,0,0,0,0,0,0,0,0,0,0,0,0,0,0,0,0,0,0,0,0,0,0,0,0,0,0,0,0,0,0,0,0,0,0,0,0,0,0,0,0,0,0,0,0,0,0,0,0,0,0,0,0,0,0,0,-1.4154,-1.4154,0,-1.4118,-1.4118,-1.4117,-1.406,-1.4059,-1.4058,-1.4057,-1.4021,-1.4021,-1.4021,0,0,0,0,0,0,0,0,0,0,0,0,0,-1.4173,-1.4173,-1.4154,-1.4154,-1.4153,-1.4118,-1.4118,-1.4117,-1.406,-1.4059,-1.4058,-1.4056,-1.4021,-1.4021,-1.4021,0,0,0,0,0,0,0,0,0,0,0,0,0,-1.4154,-1.4173,-1.4154,-1.4121,-1.4117,-1.4118,-1.4118,-1.4117,-1.406,-1.4059,-1.4057,-1.4056,-1.4021,-1.4021,-1.4021,-1.4052,0,0,-1.4021,-1.4021,0,0,0,0,0,0,0,0,-1.4155,-1.4153,-1.4126,-1.4123,-1.4119,-1.4092,-1.4111,-1.4095,-1.4061,-1.4082,-1.4057,-1.4055,-1.4046,-1.4043,-1.404,-1.405,-1.4049,-1.4021,-1.4021,-1.4021,-1.4021,0,0,0,0,0,0,0,-1.4156,-1.4154,-1.414,-1.4126,-1.4121,-1.4107,-1.4103,-1.4108,-1.4073,-1.408,-1.4076,-1.4072,-1.4043,-1.404,-1.4039,-1.4048,-1.4021,-1.4021,-1.4021,-1.4021,-1.4082,-1.4083,0,0,0,0,0,0,-1.4163,-1.4156,-1.4141,-1.4139,-1.4133,-1.4108,-1.4103,-1.4102,-1.4073,-1.4067,-1.4074,-1.407,-1.4041,-1.4039,-1.4037,-1.4072,-1.4021,-1.4021,-1.4021,-1.408,-1.4082,-1.4084,0,0,0,0,0,0,-1.4163,-1.4162,-1.4142,-1.4146,-1.4143,-1.4109,-1.4109,-1.4102,-1.4099,-1.4068,-1.4062,-1.4077,-1.404,-1.4037,-1.4049,-1.407,-1.4021,-1.4021,-1.4078,-1.4081,-1.4083,-1.4143,0,0,0,0,0,0,-1.4164,-1.4162,-1.4174,-1.4147,-1.4143,-1.4155,-1.411,-1.4103,-1.4099,-1.4094,-1.4069,-1.4064,-1.4038,-1.4049,-1.4049,-1.4069,-1.4021,-1.4076,-1.4079,-1.4082,-1.4139,-1.4147,-1.4154,0,0,0,0,0,-1.4165,-1.4193,-1.4175,-1.4174,-1.4157,-1.4156,-1.4154,-1.4124,-1.4101,-1.4113,-1.4093,-1.4065,-1.4068,-1.4051,-1.405,-1.4071,-1.4075,-1.4079,-1.4082,-1.4135,-1.4145,-1.4154,0,0,0,0,0,0,-1.4224,-1.4188,-1.4169,-1.4188,-1.4176,-1.4146,-1.416,-1.4135,-1.4129,-1.4124,-1.4087,-1.4082,-1.4098,-1.4085,-1.4067,-1.41,-1.4067,-1.4071,-1.4108,-1.4117,-1.4124,-1.4128,-1.4021,0,0,0,0,0,-1.4239,-1.4241,-1.421,-1.4231,-1.4225,-1.4194,-1.4193,-1.417,-1.4156,-1.415,-1.4131,-1.4118,-1.4116,-1.4115,-1.4112,-1.4136,-1.413,-1.415,-1.4158,-1.4164,-1.4168,-1.418,-1.4189,-1.4096,-1.4096,-1.4096,0,0,-1.427,-1.4251,-1.4255,-1.4242,-1.4229,-1.4233,-1.419,-1.4195,-1.4198,-1.4151,-1.4161,-1.4146,-1.4129,-1.4147,-1.4154,-1.4137,-1.4192,-1.4169,-1.4174,-1.4175,-1.4185,-1.4193,-1.4201,-1.4098,-1.4098,-1.4098,0,0,-1.433,-1.4315,-1.4331,-1.4319,-1.4301,-1.428,-1.4283,-1.4258,-1.4246,-1.4255,-1.422,-1.4222,-1.4219,-1.4209,-1.4203,-1.4258,-1.4232,-1.4257,-1.4298,-1.4309,-1.4317,-1.4323,-1.4343,-1.435,-1.4261,-1.4261,-1.4261,0,-1.4371,-1.4375,-1.4342,-1.435,-1.4345,-1.4302,-1.4318,-1.4308,-1.429,-1.4287,-1.4268,-1.4263,-1.4249,-1.4264,-1.4277,-1.4274,-1.4277,-1.4261,-1.4318,-1.4324,-1.433,-1.4348,-1.4356,-1.4264,-1.4264,-1.4264,-1.4263,0,-1.4427,-1.4431,-1.4445,-1.4428,-1.4425,-1.4437,-1.4405,-1.4405,-1.4383,-1.4364,-1.4374,-1.4355,-1.4346,-1.4348,-1.4327,-1.436,-1.435,-1.4325,-1.4292,-1.4343,-1.4359,-1.4366,-1.4269,-1.4268,-1.4267,-1.4266,0,0,-1.4524,-1.4488,-1.4494,-1.4486,-1.4462,-1.4464,-1.4473,-1.4465,-1.4466,-1.4455,-1.4462,-1.446,-1.4437,-1.443,-1.4407,-1.4417,-1.4462,-1.4391,-1.439,-1.4406,-1.4498,-1.4517,-1.4526,-1.4444,-1.4445,-1.4446,-1.4499,0,-1.4579,-1.4594,-1.4564,-1.4585,-1.4588,-1.4547,-1.4555,-1.4541,-1.4523,-1.4523,-1.4503,-1.4502,-1.4471,-1.4467,-1.4475,-1.4455,-1.448,-1.4451,-1.4451,-1.4451,-1.4457,-1.4535,-1.4556,-1.4607,-1.4506,-1.4507,-1.4508,0,-1.4646,-1.4638,-1.466,-1.4634,-1.4634,-1.4642,-1.4632,-1.4632,-1.4615,-1.4601,-1.4594,-1.4566,-1.4573,-1.454,-1.455,-1.453,-1.4528,-1.4518,-1.4519,-1.4519,-1.4483,-1.4538,-1.4622,-1.4631,-1.4518,-1.4517,-1.4516,0,-1.4715,-1.4709,-1.4722,-1.4716,-1.4686,-1.4693,-1.4681,-1.4662,-1.4659,-1.465,-1.4648,-1.464,-1.4636,-1.463,-1.4601,-1.4579,-1.4614,-1.4578,-1.4603,-1.4604,-1.4613,-1.4613,-1.47,-1.461,-1.461,-1.461,-1.461,0,-1.4781,-1.4796,-1.4752,-1.476,-1.4776,-1.4741,-1.4757,-1.4741,-1.4725,-1.4729,-1.4692,-1.4697,-1.4657,-1.4657,-1.4634,-1.4646,-1.4644,-1.4633,-1.4627,-1.4637,-1.4639,-1.4636,-1.4632,-1.4612,-1.4611,-1.4611,-1.4611,0,-1.4861,-1.4833,-1.4844,-1.4814,-1.4807,-1.482,-1.4795,-1.4801,-1.478,-1.4786,-1.4785,-1.4752,-1.475,-1.472,-1.4712,-1.4696,-1.4717,-1.4704,-1.4723,-1.4719,-1.4745,-1.4744,-1.4834,-1.4845,-1.4748,-1.4749,-1.475,0,-1.4906,-1.4916,-1.4888,-1.4888,-1.4878,-1.4878,-1.4875,-1.484,-1.4838,-1.4819,-1.4827,-1.4822,-1.4817,-1.4815,-1.4791,-1.4784,-1.477,-1.4803,-1.4769,-1.4779,-1.4772,-1.4772,-1.4773,-1.481,-1.4811,-1.4812,-1.4813,0,-1.4988,-1.4973,-1.4969,-1.4961,-1.4957,-1.4949,-1.4938,-1.494,-1.4902,-1.4901,-1.4899,-1.4894,-1.4885,-1.488,-1.4869,-1.4856,-1.4829,-1.4824,-1.4829,-1.484,-1.4851,-1.4846,-1.4743,-1.4822,-1.4821,-1.4821,-1.482,-1.482,-1.5052,-1.5059,-1.5041,-1.5038,-1.5026,-1.5017,-1.5021,-1.5,-1.4998,-1.4988,-1.4967,-1.4968,-1.495,-1.4932,-1.4921,-1.4921,-1.4904,-1.4912,-1.4914,-1.4917,-1.4922,-1.485,-1.4918,-1.4918,-1.4918,-1.4918,-1.4917,0,-1.5132,-1.5118,-1.5116,-1.5102,-1.51,-1.5073,-1.506,-1.5059,-1.5061,-1.5046,-1.5041,-1.5038,-1.5033,-1.5008,-1.5,-1.5005,-1.4992,-1.5004,-1.5004,-1.5001,-1.4937,-1.4934,-1.5014,-1.5014,-1.5014,-1.5014,-1.5014,-1.5014,-1.5174,-1.5186,-1.5169,-1.5174,-1.5159,-1.516,-1.5154,-1.5145,-1.5134,-1.5132,-1.5128,-1.5111,-1.5092,-1.5083,-1.5077,-1.507,-1.5069,-1.5085,-1.5074,-1.5015,-1.5006,-1.4997,-1.4993,-1.5085,-1.5085,-1.5138,-1.5138,-1.5139]},{"header":{"parameterUnit":"m.s-1","parameterCategory":1,"la1":30.2991,"la2":30.254,"lo1":-89.0895,"lo2":-89.0444,"dy":0.0017,"dx":0.0017,"nx":28,"ny":28,"refTime":"2024-10-10T21:00:00:Z","depth":0,"parameterNumber":3,"parameterNumberName":"V-component_of_WINDS"},"data":[0,0,0,0,0,0,0,0,0,0,0,0,0,0,0,0,0,0,0,0,0,0,0,0,0,0,0,0,0,0,0,0,0,0,0,0,0,0,0,0,0,0,0,0,0,0,0,0,0,0,0,0,0,0,0,0,0,0,-3.8013,-3.8014,0,-3.8119,-3.812,-3.8121,-3.8108,-3.8106,-3.8104,-3.8102,-3.8207,-3.8211,-3.8215,0,0,0,0,0,0,0,0,0,0,0,0,0,-3.7796,-3.78,-3.8013,-3.8014,-3.8016,-3.8119,-3.812,-3.8121,-3.8108,-3.8106,-3.8104,-3.8102,-3.8205,-3.821,-3.8216,0,0,0,0,0,0,0,0,0,0,0,0,0,-3.7894,-3.7801,-3.8013,-3.8021,-3.8023,-3.8118,-3.812,-3.8122,-3.8108,-3.8106,-3.8103,-3.8101,-3.8203,-3.821,-3.8216,-3.8308,0,0,-3.8236,-3.8239,0,0,0,0,0,0,0,0,-3.7889,-3.7902,-3.8019,-3.8021,-3.8023,-3.8097,-3.8082,-3.8184,-3.8109,-3.8076,-3.8102,-3.8099,-3.8172,-3.8181,-3.8206,-3.8313,-3.8318,-3.8237,-3.8241,-3.8244,-3.8246,0,0,0,0,0,0,0,-3.7882,-3.7898,-3.8055,-3.802,-3.8023,-3.8019,-3.803,-3.8101,-3.8137,-3.8079,-3.8078,-3.8091,-3.8173,-3.82,-3.8209,-3.8319,-3.8237,-3.8243,-3.8247,-3.8249,-3.8507,-3.851,0,0,0,0,0,0,-3.7873,-3.7892,-3.8051,-3.8058,-3.7948,-3.8025,-3.8037,-3.8076,-3.8136,-3.8143,-3.8093,-3.809,-3.819,-3.8201,-3.8212,-3.8325,-3.8244,-3.825,-3.8254,-3.8505,-3.8508,-3.8511,0,0,0,0,0,0,-3.7869,-3.7888,-3.8047,-3.7975,-3.7995,-3.8031,-3.8075,-3.808,-3.8107,-3.8147,-3.8153,-3.8115,-3.8189,-3.8203,-3.8285,-3.8329,-3.8253,-3.8259,-3.8501,-3.8506,-3.851,-3.8551,0,0,0,0,0,0,-3.7863,-3.7886,-3.7922,-3.7976,-3.7999,-3.8119,-3.8078,-3.8083,-3.8119,-3.8116,-3.8169,-3.8175,-3.8188,-3.8275,-3.8292,-3.8336,-3.8264,-3.8497,-3.8503,-3.8508,-3.8546,-3.8556,-3.8565,0,0,0,0,0,-3.7855,-3.7929,-3.7924,-3.7944,-3.8045,-3.8122,-3.8135,-3.8149,-3.8122,-3.8159,-3.8184,-3.8174,-3.8321,-3.8284,-3.8302,-3.8349,-3.8495,-3.8502,-3.8508,-3.8541,-3.8554,-3.8565,0,0,0,0,0,0,-3.7878,-3.7936,-3.7932,-3.8025,-3.8069,-3.8119,-3.8166,-3.8161,-3.8213,-3.8207,-3.8221,-3.8233,-3.8316,-3.8341,-3.8298,-3.8442,-3.8404,-3.8415,-3.8423,-3.8436,-3.8445,-3.8438,-3.8269,0,0,0,0,0,-3.7894,-3.7953,-3.7999,-3.8077,-3.81,-3.8129,-3.8163,-3.817,-3.8215,-3.8233,-3.8265,-3.8308,-3.8364,-3.8401,-3.8455,-3.8549,-3.856,-3.859,-3.86,-3.8607,-3.8616,-3.8669,-3.8683,-3.8533,-3.8533,-3.8533,0,0,-3.7927,-3.7966,-3.8002,-3.8083,-3.8118,-3.8178,-3.8145,-3.8209,-3.8253,-3.8242,-3.8323,-3.8348,-3.8396,-3.8485,-3.8526,-3.8508,-3.866,-3.8616,-3.8621,-3.8627,-3.8677,-3.8691,-3.8704,-3.8537,-3.8537,-3.8536,0,0,-3.8019,-3.8054,-3.8124,-3.816,-3.8213,-3.8233,-3.8249,-3.8301,-3.8318,-3.8398,-3.8392,-3.8444,-3.854,-3.8576,-3.8607,-3.8713,-3.8705,-3.8729,-3.878,-3.8831,-3.8843,-3.8853,-3.8892,-3.8906,-3.8738,-3.8738,-3.8738,0,-3.8054,-3.8145,-3.8159,-3.8226,-3.8261,-3.8256,-3.8326,-3.8359,-3.8427,-3.8452,-3.8431,-3.8553,-3.8585,-3.8683,-3.8709,-3.8733,-3.8752,-3.8724,-3.884,-3.8851,-3.8861,-3.8898,-3.8912,-3.8741,-3.8741,-3.8741,-3.874,0,-3.8185,-3.8249,-3.8298,-3.8366,-3.8407,-3.8474,-3.8498,-3.8538,-3.8541,-3.8562,-3.8645,-3.8684,-3.8746,-3.8769,-3.8772,-3.8867,-3.8855,-3.8837,-3.8799,-3.8878,-3.8913,-3.8927,-3.8745,-3.8744,-3.8743,-3.8743,0,0,-3.8295,-3.8371,-3.8389,-3.842,-3.8479,-3.8528,-3.8595,-3.8657,-3.8691,-3.8738,-3.8794,-3.8876,-3.886,-3.8895,-3.8902,-3.8947,-3.903,-3.8923,-3.8925,-3.8943,-3.9138,-3.9152,-3.9169,-3.9024,-3.9027,-3.9029,-3.9134,0,-3.8394,-3.8515,-3.853,-3.8636,-3.8695,-3.8691,-3.8749,-3.8791,-3.8813,-3.8865,-3.8887,-3.8946,-3.892,-3.8941,-3.8985,-3.901,-3.9069,-3.9003,-3.9077,-3.9079,-3.9066,-3.9187,-3.9202,-3.9299,-3.9148,-3.915,-3.9152,0,-3.8525,-3.8578,-3.8691,-3.8743,-3.8769,-3.8821,-3.888,-3.893,-3.8977,-3.8989,-3.9029,-3.903,-3.9099,-3.9058,-3.9152,-3.9107,-3.9138,-3.9155,-3.9159,-3.9167,-3.9121,-3.92,-3.9331,-3.9346,-3.9174,-3.9172,-3.917,0,-3.8596,-3.8695,-3.8776,-3.8802,-3.8864,-3.8902,-3.8929,-3.8974,-3.9011,-3.9061,-3.9085,-3.9142,-3.9174,-3.9218,-3.9235,-3.9203,-3.9329,-3.9289,-3.9341,-3.934,-3.9368,-3.9367,-3.9507,-3.9386,-3.9386,-3.9385,-3.9385,0,-3.8705,-3.8775,-3.8808,-3.8858,-3.8936,-3.8952,-3.9028,-3.9054,-3.9094,-3.9148,-3.9146,-3.9197,-3.9215,-3.9269,-3.9282,-3.9359,-3.9372,-3.9384,-3.9387,-3.9385,-3.9384,-3.9406,-3.9401,-3.9389,-3.9389,-3.9388,-3.9387,0,-3.8798,-3.8823,-3.8911,-3.8963,-3.8978,-3.9033,-3.9077,-3.9125,-3.9146,-3.9214,-3.9231,-3.9263,-3.9326,-3.9347,-3.9422,-3.9431,-3.9521,-3.9517,-3.9506,-3.9506,-3.9558,-3.9553,-3.9719,-3.9742,-3.9604,-3.9606,-3.9607,0,-3.8867,-3.8921,-3.8979,-3.9016,-3.9046,-3.9105,-3.9143,-3.9161,-3.92,-3.9259,-3.9299,-3.9362,-3.9413,-3.9513,-3.9543,-3.96,-3.9599,-3.9653,-3.9607,-3.9604,-3.9601,-3.9598,-3.9604,-3.9662,-3.9663,-3.9664,-3.9665,0,-3.8987,-3.8997,-3.9053,-3.9114,-3.916,-3.9208,-3.9254,-3.9284,-3.9308,-3.9353,-3.9418,-3.9458,-3.9536,-3.9598,-3.9657,-3.9683,-3.9679,-3.9679,-3.9695,-3.9694,-3.9686,-3.9692,-3.953,-3.9676,-3.9674,-3.9674,-3.9673,-3.9673,-3.9071,-3.9119,-3.9169,-3.9231,-3.9268,-3.9312,-3.936,-3.9387,-3.9443,-3.9509,-3.9515,-3.9585,-3.9631,-3.971,-3.974,-3.9794,-3.9779,-3.9801,-3.9807,-3.9812,-3.9817,-3.9676,-3.9805,-3.9804,-3.9804,-3.9804,-3.9804,0,-3.9192,-3.9224,-3.9282,-3.9348,-3.9397,-3.9389,-3.944,-3.9482,-3.9544,-3.9588,-3.9639,-3.9714,-3.9775,-3.9809,-3.9869,-3.9906,-3.9906,-3.9922,-3.992,-3.9926,-3.9826,-3.9808,-3.9921,-3.9921,-3.9921,-3.9921,-3.9921,-3.9921,-3.9261,-3.9343,-3.9359,-3.9459,-3.949,-3.9561,-3.9591,-3.9631,-3.9666,-3.9751,-3.9802,-3.9824,-3.9864,-3.9928,-3.9982,-3.9991,-4.0014,-4.0032,-4.0039,-3.9945,-3.9933,-3.9922,-3.9904,-4.0036,-4.0036,-4.0134,-4.0135,-4.0135]}]]